[[{"header":{"parameterUnit":"m.s-1","parameterCategory":1,"la1":30.2991,"la2":30.254,"lo1":-89.0895,"lo2":-89.0444,"dy":0.0017,"dx":0.0017,"nx":28,"ny":28,"refTime":"2025-03-28T03:00:00:Z","depth":0,"parameterNumber":2,"parameterNumberName":"U-component_of_WINDS"},"data":[0,0,0,0,0,0,0,0,0,0,0,0,0,0,0,0,0,0,0,0,0,0,0,0,0,0,0,0,0,0,0,0,0,0,0,0,0,0,0,0,0,0,0,0,0,0,0,0,0,0,0,0,0,0,0,0,0,0,-6.2913,-6.2915,0,-6.3035,-6.3036,-6.3038,-6.305,-6.3048,-6.3047,-6.3046,-6.3165,-6.3169,-6.3173,0,0,0,0,0,0,0,0,0,0,0,0,0,-6.2688,-6.2693,-6.2913,-6.2915,-6.2916,-6.3035,-6.3036,-6.3038,-6.305,-6.3048,-6.3047,-6.3045,-6.3164,-6.3169,-6.3174,0,0,0,0,0,0,0,0,0,0,0,0,0,-6.2795,-6.2694,-6.2913,-6.2937,-6.294,-6.3034,-6.3036,-6.3038,-6.305,-6.3048,-6.3047,-6.3045,-6.3162,-6.3168,-6.3175,-6.3252,0,0,-6.3194,-6.3197,0,0,0,0,0,0,0,0,-6.2789,-6.2804,-6.2932,-6.2935,-6.2939,-6.3025,-6.3001,-6.311,-6.3051,-6.3008,-6.3046,-6.3044,-6.312,-6.313,-6.3156,-6.3257,-6.3263,-6.3195,-6.3199,-6.3202,-6.3204,0,0,0,0,0,0,0,-6.2782,-6.2799,-6.2961,-6.2934,-6.2938,-6.294,-6.2953,-6.3021,-6.3073,-6.3012,-6.3013,-6.3028,-6.3121,-6.315,-6.3159,-6.3264,-6.3195,-6.3201,-6.3205,-6.3207,-6.3436,-6.3439,0,0,0,0,0,0,-6.2771,-6.2792,-6.2957,-6.2965,-6.2858,-6.2946,-6.2961,-6.2999,-6.3072,-6.3081,-6.3029,-6.3028,-6.314,-6.3151,-6.3163,-6.3259,-6.3202,-6.3208,-6.3211,-6.3434,-6.3437,-6.3439,0,0,0,0,0,0,-6.2766,-6.2785,-6.2952,-6.2879,-6.2901,-6.2952,-6.2995,-6.3003,-6.3031,-6.3085,-6.3094,-6.3049,-6.3139,-6.3154,-6.323,-6.3263,-6.3211,-6.3217,-6.3432,-6.3435,-6.3438,-6.3449,0,0,0,0,0,0,-6.2759,-6.2784,-6.2814,-6.288,-6.2904,-6.3018,-6.2997,-6.3007,-6.3043,-6.3043,-6.3106,-6.3115,-6.3138,-6.3221,-6.3237,-6.3271,-6.3222,-6.3429,-6.3433,-6.3437,-6.3446,-6.3453,-6.3458,0,0,0,0,0,-6.2751,-6.2811,-6.2815,-6.2835,-6.2944,-6.302,-6.3034,-6.3062,-6.3046,-6.3076,-6.3111,-6.3113,-6.3258,-6.3228,-6.3247,-6.3283,-6.3427,-6.3432,-6.3437,-6.3444,-6.3451,-6.3458,0,0,0,0,0,0,-6.2744,-6.2819,-6.2825,-6.2908,-6.2958,-6.3022,-6.3061,-6.3069,-6.3122,-6.3119,-6.315,-6.3164,-6.3239,-6.3269,-6.3236,-6.3362,-6.334,-6.3349,-6.3339,-6.3347,-6.3353,-6.3343,-6.3227,0,0,0,0,0,-6.2753,-6.281,-6.2873,-6.2939,-6.2965,-6.3009,-6.3043,-6.3061,-6.3112,-6.3133,-6.3173,-6.3222,-6.3279,-6.3315,-6.337,-6.3452,-6.3466,-6.3486,-6.3492,-6.3497,-6.3503,-6.3549,-6.3558,-6.3456,-6.3456,-6.3455,0,0,-6.277,-6.2818,-6.2852,-6.2939,-6.298,-6.3037,-6.3026,-6.3087,-6.3129,-6.3142,-6.3216,-6.3248,-6.3305,-6.3385,-6.3422,-6.3412,-6.3535,-6.3503,-6.3507,-6.351,-6.3555,-6.3564,-6.3573,-6.3459,-6.3458,-6.3458,0,0,-6.283,-6.2873,-6.2934,-6.2976,-6.3039,-6.3069,-6.3084,-6.3148,-6.317,-6.3246,-6.3257,-6.3308,-6.3405,-6.3445,-6.3478,-6.3559,-6.3562,-6.3576,-6.3605,-6.3649,-6.3657,-6.3665,-6.3692,-6.3702,-6.3583,-6.3583,-6.3583,0,-6.2842,-6.2931,-6.2964,-6.3025,-6.3063,-6.3081,-6.3142,-6.318,-6.3257,-6.3282,-6.3272,-6.3395,-6.3435,-6.3524,-6.3544,-6.3571,-6.3588,-6.3567,-6.3654,-6.3662,-6.3669,-6.3695,-6.3706,-6.3584,-6.3584,-6.3584,-6.3583,0,-6.2943,-6.3004,-6.3046,-6.3122,-6.3165,-6.3226,-6.3267,-6.3307,-6.3322,-6.3353,-6.3431,-6.348,-6.3546,-6.3569,-6.3583,-6.3661,-6.3653,-6.3648,-6.3626,-6.3679,-6.3704,-6.3715,-6.3585,-6.3585,-6.3585,-6.3584,0,0,-6.2997,-6.3094,-6.3109,-6.3144,-6.3217,-6.3264,-6.3327,-6.3394,-6.3426,-6.348,-6.3532,-6.3616,-6.3613,-6.3651,-6.367,-6.371,-6.3769,-6.37,-6.3702,-6.3709,-6.3857,-6.3858,-6.3869,-6.3774,-6.3776,-6.3777,-6.3852,0,-6.3064,-6.3177,-6.321,-6.3304,-6.3361,-6.3381,-6.3435,-6.3485,-6.3517,-6.3569,-6.3603,-6.3662,-6.3654,-6.3677,-6.3717,-6.3753,-6.3799,-6.3749,-6.382,-6.3822,-6.3802,-6.3883,-6.3884,-6.3951,-6.3862,-6.3863,-6.3865,0,-6.3156,-6.3214,-6.3314,-6.3382,-6.3407,-6.3455,-6.352,-6.357,-6.3628,-6.3648,-6.3693,-6.371,-6.3775,-6.3753,-6.3843,-6.3808,-6.384,-6.3863,-6.3866,-6.3871,-6.3844,-6.3887,-6.3973,-6.3982,-6.3881,-6.388,-6.3878,0,-6.3183,-6.3287,-6.3361,-6.3391,-6.3471,-6.3505,-6.354,-6.3596,-6.3635,-6.3692,-6.3717,-6.378,-6.3813,-6.3862,-6.3895,-6.3876,-6.3982,-6.3963,-6.3999,-6.3998,-6.4017,-6.4015,-6.4107,-6.4043,-6.4043,-6.4042,-6.4042,0,-6.3252,-6.3313,-6.3374,-6.3419,-6.3488,-6.3526,-6.3592,-6.3628,-6.3679,-6.373,-6.3752,-6.3799,-6.3842,-6.3896,-6.3923,-6.3993,-6.4008,-6.4025,-6.4031,-6.4022,-6.4019,-6.404,-6.4035,-6.4045,-6.4045,-6.4044,-6.4044,0,-6.3293,-6.3337,-6.3418,-6.349,-6.3509,-6.3556,-6.3617,-6.3661,-6.3695,-6.3761,-6.3778,-6.3831,-6.3896,-6.3935,-6.4016,-6.4035,-6.4111,-6.4116,-6.4092,-6.4094,-6.4128,-6.4123,-6.4234,-6.425,-6.4177,-6.4178,-6.4178,0,-6.3332,-6.338,-6.3458,-6.3495,-6.3531,-6.359,-6.3631,-6.3671,-6.3712,-6.3784,-6.3819,-6.3886,-6.3941,-6.4043,-6.4088,-6.415,-6.4156,-6.4191,-6.4165,-6.4154,-6.4154,-6.4149,-6.4154,-6.4193,-6.4194,-6.4194,-6.4195,0,-6.3398,-6.3418,-6.3477,-6.3544,-6.3592,-6.3646,-6.37,-6.3729,-6.3779,-6.3824,-6.3892,-6.3935,-6.402,-6.4085,-6.4152,-6.4187,-6.4199,-6.4204,-6.4215,-6.4204,-6.4187,-6.4195,-6.4101,-6.42,-6.4199,-6.4199,-6.4198,-6.4198,-6.3438,-6.3481,-6.3543,-6.3608,-6.3654,-6.3705,-6.375,-6.3792,-6.3849,-6.3922,-6.3943,-6.4013,-6.4072,-6.4164,-6.4201,-6.4256,-6.425,-6.4267,-6.4271,-6.4274,-6.4274,-6.4181,-6.4268,-6.4268,-6.4268,-6.4268,-6.4268,0,-6.3503,-6.3545,-6.3605,-6.3681,-6.3732,-6.3743,-6.3804,-6.3845,-6.3907,-6.3962,-6.4017,-6.4095,-6.416,-6.4211,-6.4277,-6.4312,-6.4319,-6.4327,-6.4323,-6.4331,-6.4275,-6.4258,-6.4321,-6.4321,-6.4321,-6.432,-6.432,-6.432,-6.3542,-6.3616,-6.3644,-6.3741,-6.3783,-6.3854,-6.3887,-6.3934,-6.3978,-6.4065,-6.412,-6.4154,-6.4208,-6.4278,-6.4338,-6.4352,-6.4374,-6.4381,-6.4395,-6.4341,-6.4335,-6.433,-6.4313,-6.4386,-6.4386,-6.4446,-6.4447,-6.4447]},{"header":{"parameterUnit":"m.s-1","parameterCategory":1,"la1":30.2991,"la2":30.254,"lo1":-89.0895,"lo2":-89.0444,"dy":0.0017,"dx":0.0017,"nx":28,"ny":28,"refTime":"2025-03-28T03:00:00:Z","depth":0,"parameterNumber":3,"parameterNumberName":"V-component_of_WINDS"},"data":[0,0,0,0,0,0,0,0,0,0,0,0,0,0,0,0,0,0,0,0,0,0,0,0,0,0,0,0,0,0,0,0,0,0,0,0,0,0,0,0,0,0,0,0,0,0,0,0,0,0,0,0,0,0,0,0,0,0,4.464,4.4641,0,4.4732,4.4733,4.4734,4.4784,4.4784,4.4784,4.4784,4.4872,4.4874,4.4876,0,0,0,0,0,0,0,0,0,0,0,0,0,4.45,4.4503,4.464,4.4641,4.4642,4.4732,4.4733,4.4735,4.4784,4.4784,4.4784,4.4784,4.4871,4.4874,4.4876,0,0,0,0,0,0,0,0,0,0,0,0,0,4.4573,4.4503,4.4639,4.4677,4.4682,4.4732,4.4734,4.4735,4.4784,4.4784,4.4784,4.4784,4.487,4.4873,4.4877,4.4894,0,0,4.4887,4.4888,0,0,0,0,0,0,0,0,4.4569,4.4578,4.4671,4.4675,4.468,4.4747,4.4717,4.4788,4.4784,4.4745,4.4784,4.4784,4.483,4.4836,4.4853,4.4898,4.4902,4.4887,4.4889,4.4891,4.4892,0,0,0,0,0,0,0,4.4564,4.4575,4.4676,4.4672,4.4678,4.4688,4.4699,4.473,4.4785,4.4748,4.4752,4.4763,4.4832,4.485,4.4855,4.4903,4.4887,4.489,4.4892,4.4894,4.4971,4.4971,0,0,0,0,0,0,4.4554,4.457,4.4673,4.4679,4.4624,4.4691,4.4703,4.4725,4.4785,4.4794,4.4762,4.4765,4.4844,4.4852,4.4859,4.4886,4.4891,4.4894,4.4896,4.4971,4.4971,4.4971,0,0,0,0,0,0,4.4551,4.4562,4.4669,4.4626,4.464,4.4693,4.4718,4.4727,4.4745,4.4796,4.4805,4.4771,4.4844,4.4854,4.4886,4.4889,4.4895,4.4898,4.497,4.4971,4.4971,4.4938,0,0,0,0,0,0,4.4546,4.4561,4.4569,4.4626,4.4642,4.4696,4.4718,4.4728,4.4751,4.4755,4.4806,4.4814,4.4845,4.4881,4.489,4.4894,4.4901,4.497,4.4971,4.4971,4.4939,4.4936,4.4935,0,0,0,0,0,4.4541,4.4554,4.4569,4.4581,4.4654,4.4697,4.4706,4.4743,4.4751,4.4759,4.4793,4.4813,4.4887,4.4884,4.4894,4.4899,4.497,4.497,4.4971,4.4939,4.4937,4.4935,0,0,0,0,0,0,4.4492,4.4561,4.4579,4.4611,4.4648,4.4705,4.4716,4.4739,4.4772,4.4774,4.4817,4.4828,4.4856,4.4881,4.4876,4.4921,4.4931,4.4933,4.4904,4.4902,4.49,4.4894,4.4904,0,0,0,0,0,4.4486,4.4517,4.4575,4.4597,4.4615,4.4662,4.4682,4.4708,4.4747,4.4762,4.4798,4.4833,4.4865,4.4884,4.4916,4.4942,4.4955,4.4951,4.4949,4.4947,4.4949,4.4967,4.4966,4.4971,4.4971,4.4971,0,0,4.4471,4.4513,4.4529,4.4588,4.462,4.465,4.4675,4.4705,4.4728,4.4766,4.48,4.4827,4.4869,4.49,4.4915,4.4921,4.495,4.4947,4.4945,4.4948,4.4967,4.4966,4.4966,4.4971,4.4971,4.4971,0,0,4.4461,4.4495,4.4519,4.4552,4.4601,4.4633,4.4639,4.4693,4.4714,4.475,4.478,4.4807,4.486,4.489,4.4912,4.4917,4.4938,4.4926,4.4915,4.4933,4.4932,4.4932,4.4936,4.4936,4.4927,4.4927,4.4927,0,4.4436,4.4485,4.4528,4.4558,4.4584,4.4623,4.4648,4.4676,4.4732,4.4748,4.4755,4.4825,4.4856,4.4895,4.4897,4.4913,4.4921,4.492,4.4929,4.493,4.493,4.4934,4.4935,4.4925,4.4925,4.4926,4.4926,0,4.4454,4.4487,4.45,4.4558,4.4584,4.4611,4.4657,4.4679,4.4703,4.4734,4.477,4.481,4.4852,4.4862,4.4884,4.4905,4.4908,4.4921,4.4933,4.4928,4.4932,4.4934,4.4923,4.4923,4.4924,4.4924,0,0,4.4413,4.4497,4.4501,4.4529,4.4588,4.4614,4.4643,4.4687,4.4706,4.4743,4.4769,4.4815,4.4829,4.4854,4.488,4.4895,4.4899,4.4907,4.4909,4.4905,4.4927,4.4917,4.4918,4.4913,4.4914,4.4914,4.4924,0,4.4413,4.447,4.4511,4.4551,4.4584,4.4623,4.4649,4.4687,4.4717,4.4748,4.478,4.4813,4.4828,4.4844,4.4861,4.4895,4.4904,4.4895,4.4937,4.4938,4.4927,4.492,4.491,4.4917,4.4926,4.4926,4.4926,0,4.442,4.4461,4.4505,4.4564,4.4579,4.4602,4.4647,4.4676,4.472,4.4742,4.4772,4.48,4.4831,4.484,4.4885,4.4878,4.4897,4.4917,4.4918,4.4924,4.4932,4.4927,4.492,4.4922,4.4929,4.4929,4.4929,0,4.4389,4.4454,4.4491,4.4513,4.4582,4.4597,4.4626,4.4671,4.4696,4.4735,4.4752,4.4792,4.4814,4.4845,4.4883,4.4885,4.4924,4.4935,4.4943,4.4942,4.4949,4.4948,4.4946,4.496,4.496,4.496,4.496,0,4.4385,4.4411,4.4479,4.4501,4.4532,4.4578,4.4607,4.4639,4.4679,4.4708,4.4743,4.4768,4.4817,4.4848,4.4878,4.4911,4.492,4.4938,4.4946,4.4936,4.4934,4.495,4.4951,4.496,4.496,4.496,4.496,0,4.4355,4.4401,4.4444,4.4507,4.4524,4.4544,4.4598,4.462,4.4654,4.469,4.4701,4.4752,4.4792,4.4833,4.4884,4.4905,4.4937,4.4947,4.4924,4.4928,4.4934,4.4933,4.4943,4.4947,4.4956,4.4956,4.4956,0,4.435,4.4372,4.4439,4.4463,4.4492,4.4528,4.4556,4.4602,4.4628,4.4683,4.4699,4.4742,4.4779,4.4839,4.488,4.492,4.4932,4.4933,4.4938,4.4929,4.4934,4.4933,4.4937,4.4931,4.4931,4.4931,4.493,0,4.4337,4.436,4.4399,4.4447,4.448,4.4519,4.4559,4.4575,4.463,4.4657,4.47,4.4729,4.4784,4.4826,4.4872,4.49,4.4924,4.4929,4.4933,4.4923,4.4909,4.4919,4.492,4.4928,4.4928,4.4929,4.4929,4.4929,4.4321,4.4343,4.4396,4.4439,4.4475,4.4513,4.4539,4.4577,4.4614,4.4666,4.469,4.4733,4.4779,4.4844,4.4871,4.4905,4.4912,4.4917,4.4919,4.492,4.4918,4.4904,4.4913,4.4913,4.4913,4.4913,4.4913,0,4.4311,4.4348,4.4387,4.4445,4.4479,4.4502,4.4549,4.4575,4.4614,4.4656,4.4693,4.4742,4.4784,4.483,4.4874,4.4892,4.4904,4.4902,4.4901,4.4908,4.4908,4.4901,4.4891,4.4891,4.4891,4.4891,4.4891,4.4891,4.431,4.4351,4.4381,4.444,4.4476,4.4521,4.4546,4.4581,4.4615,4.467,4.4707,4.4737,4.4781,4.4829,4.4868,4.4881,4.4896,4.4891,4.4906,4.4906,4.4907,4.4909,4.4903,4.4893,4.4893,4.4903,4.4903,4.4903]}]]